Mackinac Island, MI

1:17 AM EDT on May 29, 2017 (GMT -0400)
Mackinac Island

Weather History for KMCD - November, 2013

Change the Weather History Date:

Wednesday, November 27, 2013

  Actual Average Record
Temperature  
Mean Temperature 20 °F -  
Max Temperature 23 °F 36 °F 56 °F (1990)
Min Temperature 16 °F 28 °F 12 °F (1985)
Degree Days  
Heating Degree Days 46    
Moisture  
Dew Point 11 °F    
Average Humidity 70    
Maximum Humidity 91    
Minimum Humidity 54    
Precipitation  
Precipitation 0.00 in - - ()
Sea Level Pressure  
Sea Level Pressure 30.05 in    
Wind  
Wind Speed 13 mph (North)    
Max Wind Speed 22 mph    
Max Gust Speed 33 mph    
Visibility 10 miles    
Events Snow    
Averages and records for this station are not official NWS values.
T = Trace of Precipitation, MM = Missing Value Source: NWS Daily Summary

Daily Weather History Graph

Daily Weather History Graph

Search for Another Location

Airport or City:

Trip Planner

Search our weather history database for the weather conditions in past years. The results will help you decide how hot, cold, wet, or windy it might be!

Date:

Astronomy

Nov. 27, 2013 Rise Set
Actual Time 7:54 AM EST 4:57 PM EST
Civil Twilight 7:21 AM EST 5:30 PM EST
Nautical Twilight 6:44 AM EST 6:07 PM EST
Astronomical Twilight 6:08 AM EST 6:43 PM EST
Moon 1:38 AM EST (11/27) 1:50 PM EST (11/27)
Length of Visible Light 10h 09m
Length of Day
9h 02m
Waning Crescent, 32% of the Moon is Illuminated
Nov 27
Waning Crescent
Dec 2
New
Dec 9
First Quarter
Dec 17
Full
Dec 25
Last Quarter

Hourly Weather History & Observations

Time (EST) Temp. Windchill Dew Point Humidity Pressure Visibility Wind Dir Wind Speed Gust Speed Precip Events Conditions
12:15 AM 20.8 °F 10.4 °F 16.3 °F 83% 30.00 in 10.0 mi West 9.2 mph 16.1 mph N/A   Overcast
12:35 AM 20.1 °F 9.5 °F 15.6 °F 83% 29.99 in 10.0 mi WNW 9.2 mph 18.4 mph N/A   Scattered Clouds
12:55 AM 20.1 °F 9.5 °F 15.4 °F 82% 29.99 in 10.0 mi WNW 9.2 mph 21.9 mph N/A   Clear
1:15 AM 20.1 °F 6.9 °F 15.1 °F 81% 29.98 in 10.0 mi NNW 13.8 mph 21.9 mph N/A   Scattered Clouds
1:35 AM 20.1 °F 8.8 °F 15.8 °F 83% 29.97 in 10.0 mi NW 10.4 mph 20.7 mph N/A   Mostly Cloudy
1:55 AM 19.9 °F 7.9 °F 15.8 °F 84% 29.97 in 10.0 mi WNW 11.5 mph 18.4 mph N/A   Scattered Clouds
2:15 AM 19.4 °F 6.6 °F 15.8 °F 86% 29.97 in 10.0 mi NW 12.7 mph 21.9 mph N/A   Clear
2:35 AM 19.8 °F 8.3 °F 15.8 °F 85% 29.96 in 10.0 mi NW 10.4 mph 24.2 mph N/A   Scattered Clouds
2:55 AM 19.4 °F 5.0 °F 16.3 °F 88% 29.96 in 10.0 mi NW 16.1 mph 23.0 mph N/A Snow Light Snow
3:15 AM 19.8 °F 7.7 °F 17.4 °F 91% 29.97 in 7.0 mi NW 11.5 mph 24.2 mph N/A Snow Light Snow
3:35 AM 19.9 °F 7.3 °F 17.4 °F 90% 29.96 in 7.0 mi NNW 12.7 mph 20.7 mph N/A Snow Light Snow
3:55 AM 19.4 °F 7.9 °F 17.2 °F 91% 29.96 in 5.0 mi NNW 10.4 mph 17.3 mph N/A Snow Light Snow
4:15 AM 19.8 °F 7.7 °F 17.4 °F 91% 29.97 in 2.0 mi NNW 11.5 mph 19.6 mph N/A Snow Light Snow
4:35 AM 20.1 °F 9.5 °F 17.4 °F 89% 29.97 in 3.0 mi NNW 9.2 mph 16.1 mph N/A Snow Light Snow
4:55 AM 20.3 °F 11.5 °F 17.6 °F 89% 29.97 in 3.0 mi NNW 6.9 mph - N/A Snow Light Snow
5:15 AM 19.9 °F 4.8 °F 15.8 °F 84% 29.98 in 7.0 mi North 18.4 mph 23.0 mph N/A Snow Light Snow
5:35 AM 19.4 °F 7.2 °F 14.5 °F 81% 29.99 in 10.0 mi North 11.5 mph 23.0 mph N/A   Overcast
5:55 AM 18.7 °F 4.0 °F 14.0 °F 82% 30.00 in 7.0 mi North 16.1 mph 24.2 mph N/A Snow Light Snow
6:15 AM 17.6 °F 2.2 °F 12.2 °F 79% 30.00 in 10.0 mi North 17.3 mph 25.3 mph N/A   Overcast
6:35 AM 16.5 °F 0.3 °F 10.6 °F 77% 30.01 in 10.0 mi North 18.4 mph 26.5 mph N/A   Mostly Cloudy
6:55 AM 16.7 °F 3.2 °F 11.3 °F 79% 30.02 in 10.0 mi NNW 12.7 mph 28.8 mph N/A   Mostly Cloudy
7:14 AM 16.7 °F -0.3 °F 10.4 °F 76% 30.03 in 10.0 mi North 20.7 mph 28.8 mph N/A   Mostly Cloudy
7:35 AM 16.7 °F 2.6 °F 10.4 °F 76% 30.04 in 10.0 mi North 13.8 mph 25.3 mph N/A   Scattered Clouds
7:55 AM 16.7 °F 2.6 °F 10.9 °F 78% 30.04 in 10.0 mi North 13.8 mph 23.0 mph N/A   Scattered Clouds
8:14 AM 16.7 °F 1.0 °F 10.2 °F 76% 30.05 in 10.0 mi North 17.3 mph 24.2 mph N/A   Scattered Clouds
8:35 AM 17.6 °F 1.7 °F 10.4 °F 73% 30.05 in 10.0 mi North 18.4 mph 28.8 mph N/A   Clear
8:55 AM 18.3 °F 3.6 °F 11.7 °F 75% 30.06 in 10.0 mi North 16.1 mph 24.2 mph N/A   Scattered Clouds
9:14 AM 18.5 °F 3.8 °F 11.5 °F 74% 30.06 in 10.0 mi North 16.1 mph 26.5 mph N/A   Scattered Clouds
9:35 AM 19.2 °F 4.7 °F 11.1 °F 71% 30.06 in 10.0 mi North 16.1 mph 29.9 mph N/A   Scattered Clouds
9:55 AM 19.9 °F 4.8 °F 11.3 °F 69% 30.06 in 10.0 mi North 18.4 mph 27.6 mph N/A   Scattered Clouds
10:14 AM 20.3 °F 7.2 °F 10.0 °F 65% 30.07 in 10.0 mi North 13.8 mph 28.8 mph N/A   Scattered Clouds
10:35 AM 20.5 °F 6.4 °F 7.7 °F 58% 30.06 in 10.0 mi North 16.1 mph 29.9 mph N/A   Scattered Clouds
10:55 AM 20.8 °F 5.5 °F 7.9 °F 57% 30.06 in 10.0 mi North 19.6 mph 31.1 mph N/A   Scattered Clouds
11:14 AM 21.2 °F 5.2 °F 8.4 °F 58% 30.06 in 10.0 mi North 21.9 mph 29.9 mph N/A   Scattered Clouds
11:35 AM 21.7 °F 6.3 °F 9.3 °F 59% 30.05 in 10.0 mi North 20.7 mph 31.1 mph N/A   Scattered Clouds
11:54 AM 22.5 °F 7.6 °F 9.3 °F 57% 30.05 in 10.0 mi North 19.6 mph 29.9 mph N/A   Scattered Clouds
12:15 PM 23.0 °F 8.3 °F 8.4 °F 54% 30.04 in 10.0 mi North 19.6 mph 33.4 mph N/A   Scattered Clouds
12:35 PM 22.5 °F 7.2 °F 10.2 °F 59% 30.03 in 10.0 mi NNW 20.7 mph 26.5 mph N/A   Mostly Cloudy
12:54 PM 21.9 °F 9.2 °F 9.7 °F 59% 30.03 in 10.0 mi NNW 13.8 mph 28.8 mph N/A   Overcast
1:15 PM 22.1 °F 10.0 °F 9.9 °F 59% 30.03 in 10.0 mi North 12.7 mph 28.8 mph N/A   Overcast
1:35 PM 22.1 °F 8.9 °F 9.9 °F 59% 30.03 in 10.0 mi North 15.0 mph 26.5 mph N/A   Overcast
1:54 PM 22.5 °F 8.5 °F 9.1 °F 57% 30.03 in 10.0 mi North 17.3 mph 26.5 mph N/A   Overcast
2:15 PM 21.9 °F 7.3 °F 8.2 °F 56% 30.03 in 10.0 mi North 18.4 mph 27.6 mph N/A   Overcast
2:35 PM 22.3 °F 7.0 °F 8.6 °F 56% 30.03 in 10.0 mi North 20.7 mph 29.9 mph N/A   Overcast
2:54 PM 22.1 °F 7.2 °F 9.9 °F 59% 30.03 in 10.0 mi North 19.6 mph 26.5 mph N/A   Overcast
3:15 PM 22.1 °F 10.6 °F 9.5 °F 58% 30.04 in 10.0 mi NNW 11.5 mph 28.8 mph N/A   Overcast
3:35 PM 22.5 °F 8.9 °F 9.5 °F 58% 30.04 in 10.0 mi North 16.1 mph 27.6 mph N/A   Overcast
3:54 PM 22.5 °F 11.1 °F 9.5 °F 58% 30.04 in 10.0 mi North 11.5 mph 23.0 mph N/A   Overcast
4:15 PM 22.1 °F 10.6 °F 9.1 °F 58% 30.05 in 10.0 mi North 11.5 mph 21.9 mph N/A   Mostly Cloudy
4:35 PM 21.6 °F 8.2 °F 10.0 °F 61% 30.06 in 10.0 mi North 15.0 mph 19.6 mph N/A   Mostly Cloudy
4:55 PM 21.2 °F 9.5 °F 10.4 °F 63% 30.06 in 10.0 mi NNW 11.5 mph 20.7 mph N/A   Overcast
5:15 PM 21.2 °F 10.1 °F 11.1 °F 65% 30.08 in 10.0 mi North 10.4 mph 19.6 mph N/A   Overcast
5:35 PM 21.0 °F 7.6 °F 11.3 °F 66% 30.08 in 10.0 mi North 15.0 mph 20.7 mph N/A   Overcast
5:55 PM 20.3 °F 8.3 °F 10.4 °F 66% 30.09 in 10.0 mi North 11.5 mph 17.3 mph N/A   Mostly Cloudy
6:15 PM 19.9 °F 7.9 °F 9.1 °F 63% 30.10 in 10.0 mi North 11.5 mph 17.3 mph N/A   Scattered Clouds
6:35 PM 19.9 °F 6.2 °F 7.7 °F 59% 30.10 in 10.0 mi North 15.0 mph 19.6 mph N/A   Mostly Cloudy
6:55 PM 19.9 °F 8.6 °F 8.2 °F 61% 30.11 in 10.0 mi North 10.4 mph 17.3 mph N/A   Scattered Clouds
7:15 PM 19.4 °F 11.5 °F 8.2 °F 62% 30.11 in 10.0 mi North 5.8 mph - N/A   Scattered Clouds
7:35 PM 19.2 °F 7.7 °F 7.9 °F 61% 30.12 in 10.0 mi North 10.4 mph - N/A   Clear
7:55 PM 19.2 °F 7.7 °F 8.4 °F 63% 30.12 in 10.0 mi North 10.4 mph 16.1 mph N/A   Clear
8:15 PM 19.2 °F 7.7 °F 8.2 °F 62% 30.12 in 10.0 mi North 10.4 mph 17.3 mph N/A   Clear
8:35 PM 19.2 °F 7.0 °F 8.4 °F 63% 30.12 in 10.0 mi North 11.5 mph 16.1 mph N/A   Clear
8:55 PM 18.9 °F 8.8 °F 9.1 °F 66% 30.12 in 10.0 mi North 8.1 mph - N/A   Clear
9:15 PM 19.0 °F 7.5 °F 9.9 °F 67% 30.12 in 10.0 mi North 10.4 mph 19.6 mph N/A   Clear
9:35 PM 18.9 °F 6.5 °F 9.9 °F 68% 30.12 in 10.0 mi NNE 11.5 mph - N/A   Clear
9:55 PM 18.3 °F 5.2 °F 9.5 °F 68% 30.13 in 10.0 mi NNE 12.7 mph - N/A   Clear
10:15 PM 18.0 °F 4.8 °F 9.0 °F 68% 30.13 in 10.0 mi NNE 12.7 mph 16.1 mph N/A   Clear
10:35 PM 17.6 °F 7.3 °F 9.3 °F 70% 30.14 in 10.0 mi NNE 8.1 mph - N/A   Clear
10:55 PM 17.6 °F 7.3 °F 9.7 °F 71% 30.14 in 10.0 mi NNE 8.1 mph - N/A   Clear
11:15 PM 17.2 °F 6.8 °F 9.7 °F 72% 30.15 in 10.0 mi NNE 8.1 mph - N/A   Clear
11:35 PM 17.1 °F 5.8 °F 9.5 °F 72% 30.15 in 10.0 mi NNE 9.2 mph - N/A   Clear
11:55 PM 16.9 °F 5.5 °F 9.5 °F 73% 30.15 in 10.0 mi NNE 9.2 mph - N/A   Clear